Time,TemperatureF,DewpointF,PressureIn,WindDirection,WindDirectionDegrees,WindSpeedMPH,WindSpeedGustMPH,Humidity,HourlyPrecipIn,Conditions,Clouds,dailyrainin,SoftwareType,DateUTC
2013-11-27 00:02:00,41.0,19.0,-100.00,SE,128,3.0,4.0,40,-99.99,,,-99.99,,2013-11-27 08:02:00,
2013-11-27 00:21:00,42.0,17.0,-100.00,ESE,123,3.0,4.0,36,-99.99,,,-99.99,,2013-11-27 08:21:00,
2013-11-27 00:42:00,42.0,17.0,-100.00,SE,128,3.0,4.0,36,-99.99,,,-99.99,,2013-11-27 08:42:00,
2013-11-27 01:11:00,41.0,17.0,-100.00,SE,138,2.0,3.0,38,-99.99,,,-99.99,,2013-11-27 09:11:00,
2013-11-27 01:21:00,41.0,17.0,-100.00,SE,138,2.0,3.0,38,-99.99,,,-99.99,,2013-11-27 09:21:00,
2013-11-27 02:23:00,40.0,16.0,-100.00,North,-999,0.0,0.0,38,-99.99,,,-99.99,,2013-11-27 10:23:00,
2013-11-27 03:12:00,40.0,18.0,-100.00,North,-999,0.0,0.0,40,-99.99,,,-99.99,,2013-11-27 11:12:00,
2013-11-27 03:22:00,40.0,21.0,-100.00,North,-999,0.0,0.0,46,-99.99,,,-99.99,,2013-11-27 11:22:00,
2013-11-27 03:33:00,40.0,21.0,-100.00,North,-999,0.0,0.0,46,-99.99,,,-99.99,,2013-11-27 11:33:00,
2013-11-27 03:53:00,40.0,20.0,-100.00,North,-999,0.0,0.0,45,-99.99,,,-99.99,,2013-11-27 11:53:00,
2013-11-27 04:02:00,40.0,20.0,-100.00,North,-999,0.0,0.0,45,-99.99,,,-99.99,,2013-11-27 12:02:00,
2013-11-27 04:21:00,40.0,21.0,-100.00,North,-999,0.0,0.0,46,-99.99,,,-99.99,,2013-11-27 12:21:00,
2013-11-27 04:42:00,39.0,21.0,-100.00,ESE,116,4.0,5.0,48,-99.99,,,-99.99,,2013-11-27 12:42:00,
2013-11-27 04:52:00,39.0,20.0,-100.00,ESE,123,4.0,5.0,46,-99.99,,,-99.99,,2013-11-27 12:52:00,
2013-11-27 05:11:00,39.0,20.0,-100.00,SE,130,3.0,4.0,46,-99.99,,,-99.99,,2013-11-27 13:11:00,
2013-11-27 05:22:00,39.0,20.0,-100.00,SE,130,3.0,4.0,46,-99.99,,,-99.99,,2013-11-27 13:22:00,
2013-11-27 05:42:00,39.0,21.0,-100.00,SE,131,3.0,4.0,49,-99.99,,,-99.99,,2013-11-27 13:42:00,
2013-11-27 05:52:00,39.0,21.0,-100.00,SE,126,3.0,5.0,48,-99.99,,,-99.99,,2013-11-27 13:52:00,
2013-11-27 06:02:00,39.0,21.0,-100.00,SE,126,3.0,5.0,48,-99.99,,,-99.99,,2013-11-27 14:02:00,
2013-11-27 06:11:00,39.0,21.0,-100.00,SE,126,3.0,5.0,48,-99.99,,,-99.99,,2013-11-27 14:11:00,
2013-11-27 06:21:00,39.0,23.0,-100.00,SE,143,2.0,3.0,53,-99.99,,,-99.99,,2013-11-27 14:21:00,
2013-11-27 07:53:00,39.0,19.0,-100.00,SE,140,2.0,3.0,45,-99.99,,,-99.99,,2013-11-27 15:53:00,
2013-11-27 08:04:00,39.0,19.0,-100.00,SE,140,2.0,3.0,45,-99.99,,,-99.99,,2013-11-27 16:04:00,
2013-11-27 08:13:00,39.0,19.0,-100.00,SE,140,2.0,3.0,45,-99.99,,,-99.99,,2013-11-27 16:13:00,
2013-11-27 08:23:00,40.0,23.0,-100.00,North,-999,0.0,0.0,50,-99.99,,,-99.99,,2013-11-27 16:23:00,
2013-11-27 08:33:00,40.0,23.0,-100.00,North,-999,0.0,0.0,50,-99.99,,,-99.99,,2013-11-27 16:33:00,
2013-11-27 08:53:00,40.0,21.0,-100.00,North,-999,0.0,0.0,47,-99.99,,,-99.99,,2013-11-27 16:53:00,
2013-11-27 09:02:00,40.0,21.0,-100.00,North,-999,0.0,0.0,47,-99.99,,,-99.99,,2013-11-27 17:02:00,
2013-11-27 09:42:00,42.0,23.0,-100.00,North,-999,0.0,0.0,46,-99.99,,,-99.99,,2013-11-27 17:42:00,
2013-11-27 09:52:00,43.0,23.0,-100.00,North,-999,0.0,0.0,45,-99.99,,,-99.99,,2013-11-27 17:52:00,
2013-11-27 10:12:00,43.0,23.0,-100.00,NE,51,2.0,3.0,45,-99.99,,,-99.99,,2013-11-27 18:12:00,
2013-11-27 10:22:00,43.0,23.0,-100.00,NE,51,2.0,3.0,45,-99.99,,,-99.99,,2013-11-27 18:22:00,
2013-11-27 10:43:00,44.0,24.0,-100.00,North,-999,0.0,0.0,45,-99.99,,,-99.99,,2013-11-27 18:43:00,
2013-11-27 11:21:00,44.0,25.0,-100.00,North,-999,0.0,0.0,47,-99.99,,,-99.99,,2013-11-27 19:21:00,
2013-11-27 12:11:00,45.0,25.0,-100.00,North,-999,0.0,0.0,46,-99.99,,,-99.99,,2013-11-27 20:11:00,
2013-11-27 12:22:00,45.0,25.0,-100.00,North,-999,0.0,0.0,46,-99.99,,,-99.99,,2013-11-27 20:22:00,
2013-11-27 12:31:00,45.0,25.0,-100.00,North,-999,0.0,0.0,46,-99.99,,,-99.99,,2013-11-27 20:31:00,
2013-11-27 12:52:00,45.0,26.0,-100.00,North,-999,0.0,0.0,47,-99.99,,,-99.99,,2013-11-27 20:52:00,
2013-11-27 13:02:00,45.0,26.0,-100.00,North,-999,0.0,0.0,47,-99.99,,,-99.99,,2013-11-27 21:02:00,
2013-11-27 13:21:00,46.0,26.0,-100.00,North,-999,0.0,0.0,45,-99.99,,,-99.99,,2013-11-27 21:21:00,
2013-11-27 13:43:00,46.0,25.0,-100.00,North,-999,0.0,0.0,44,-99.99,,,-99.99,,2013-11-27 21:43:00,
2013-11-27 14:13:00,47.0,26.0,-100.00,North,-999,0.0,0.0,43,-99.99,,,-99.99,,2013-11-27 22:13:00,
2013-11-27 14:23:00,46.0,24.0,-100.00,North,-999,0.0,0.0,42,-99.99,,,-99.99,,2013-11-27 22:23:00,
2013-11-27 14:42:00,48.0,23.0,-100.00,North,-999,0.0,0.0,37,-99.99,,,-99.99,,2013-11-27 22:42:00,
2013-11-27 18:21:00,43.0,17.0,-100.00,ESE,116,4.0,5.0,35,-99.99,,,-99.99,,2013-11-28 02:21:00,
2013-11-27 19:21:00,42.0,16.0,-100.00,ESE,102,3.0,5.0,35,-99.99,,,-99.99,,2013-11-28 03:21:00,
2013-11-27 20:52:00,41.0,17.0,-100.00,SE,128,4.0,5.0,37,-99.99,,,-99.99,,2013-11-28 04:52:00,
2013-11-27 21:02:00,41.0,17.0,-100.00,SE,128,4.0,5.0,37,-99.99,,,-99.99,,2013-11-28 05:02:00,
2013-11-27 22:12:00,40.0,19.0,-100.00,SE,128,4.0,5.0,42,-99.99,,,-99.99,,2013-11-28 06:12:00,
2013-11-27 22:21:00,40.0,19.0,-100.00,ESE,123,5.0,5.0,42,-99.99,,,-99.99,,2013-11-28 06:21:00,
2013-11-27 22:42:00,40.0,19.0,-100.00,SE,130,5.0,5.0,42,-99.99,,,-99.99,,2013-11-28 06:42:00,
2013-11-27 23:11:00,40.0,18.0,-100.00,SE,134,4.0,5.0,41,-99.99,,,-99.99,,2013-11-28 07:11:00,
2013-11-27 23:21:00,40.0,18.0,-100.00,SE,134,4.0,5.0,41,-99.99,,,-99.99,,2013-11-28 07:21:00,